Tracking 25703 objects as of 2-Jul-2022
HD Live streaming from Space Station
objects crossing your sky now

BRAZILSAT B2

Track BRAZILSAT B2 now!
BRAZILSAT B2 is classified as:


NORAD ID: 23536
Int'l Code: 1995-016A
Perigee: 36,066.9 km
Apogee: 36,106.1 km
Inclination: 9.8 °
Period: 1,451.1 minutes
Semi major axis: 42457 km
RCS: 7.5458 m2 (large)
Launch date: March 28, 1995
Source: Brazil (BRAZ)
Launch site: FRENCH GUIANA (FRGUI)

24 C-band; several X-band.
aabbcc
Your satellite tracking list
Your tracking list is empty




NASA's NSSDC Master Catalog

Two Line Element Set (TLE):
1 23536U 95016A   22182.31119604  .00000064  00000-0  00000-0 0  9990
2 23536   9.8033  41.1753 0004617  64.0479 167.4066  0.99236558 99738
Source of the keplerian elements: AFSPC